Location: Alston School (historical)
(35.5076°N, 89.8251°W)
Time: 19:55:22
(UTC+00:00)

Cosmos 2058 Rocket - Pass Details

Date: 17 March 2026
Orbit: 604 x 632 km, 82.5° (Epoch: 21 April)

Event Time Altitude Azimuth Distance (km) Brightness Sun altitude
Rises 10:42:41 0° 139° (SE) 2,887 6.9 -17.9°
Reaches altitude 10° 10:46:08 10° 110° (ESE) 1,994 6.5 -17.2°
Maximum altitude 10:47:58 12° 85° (E) 1,839 6.7 -16.9°
Drops below altitude 10° 10:49:49 10° 60° (ENE) 2,006 6.8 -16.5°
Sets 10:53:18 0° 32° (NNE) 2,924 7.2 -15.8°
